Regional Weather Roundup
Issued by NWS

Home | Current Version | Previous Version | Graphics & Text | Print | Product List | Glossary On
Versions: 1 2 3 4 5 6 7 8 9 10 11 12 13 14 15 16 17 18 19 20 21 22 23 24 25 26 27 28 29 30 31 32 33 34 35 36 37 38 39 40 41 42 43 44 45 46 47 48 49 50
000
ASUS43 KTOP 272308
RWRKS

WEATHER ROUNDUP FOR KANSAS
NATIONAL WEATHER SERVICE GOODLAND KS
600 PM CDT MON JUL 27 2015

NOTE:  "FAIR" INDICATES FEW OR NO CLOUDS BELOW 12,000 FEET WITH NO
SIGNIFICANT WEATHER AND/OR OBSTRUCTIONS TO VISIBILITY.

KSZ001>006-013>018-027>032-041>047-280000-
NORTHWEST KANSAS

CITY           SKY/WX    TMP DP  RH WIND       PRES   REMARKS
GOODLAND       MOSUNNY   92  67  43 S23G31    29.81F HX  95
HAYS           SUNNY     93  66  40 S25       29.80S HX  96
HILL CITY      SUNNY     95  70  44 S21G30    29.78F HX 101
RUSSELL        SUNNY     93  64  38 S21G29    29.79F
$$

KSZ061>065-074>080-084>089-280000-
SOUTHWEST KANSAS

CITY           SKY/WX    TMP DP  RH WIND       PRES   REMARKS
DODGE CITY     SUNNY     95  62  33 S24G30    29.84S HX  96
ELKHART          N/A     95  63  34 S15         N/A  HX  96
GARDEN CITY    SUNNY     93  68  43 S22G33    29.81F HX  97
GREAT BEND     SUNNY     97  64  34 S24G30    29.79F HX  99
LIBERAL        SUNNY     97  64  34 S18G28    29.83S HX  99
PRATT          SUNNY     95  59  30 S18G25    29.85F
$$

KSZ066>073-081>083-090>101-280000-
SOUTHEAST KANSAS

CITY           SKY/WX    TMP DP  RH WIND       PRES   REMARKS
CHANUTE        MOSUNNY   92  72  51 S13       29.89S HX  99
COFFEYVILLE    SUNNY     94  73  50 S10       29.87F HX 103
HUTCHINSON     SUNNY     98  63  31 S21G28    29.83F HX 100
MEDICINE LODGE   N/A     97  69  40 S14G21    29.81F HX 103
NEWTON         SUNNY     97  61  30 S18G25    29.88F HX  97
PARSONS        SUNNY     93  76  57 S7        29.89F HX 105
WICHITA INTL   MOSUNNY   97  60  29 S18       29.84F HX  97
WICHITA JABRA  MOSUNNY   96  62  32 S16       29.86S HX  97
WICHITA MCCONL SUNNY     95  63  34 SE16      29.86S HX  96
WINFIELD       MOSUNNY   94  69  44 S16       29.87S HX  99
$$

KSZ007>012-019>026-033>040-048>060-102>105-280000-
NORTHEAST KANSAS

CITY           SKY/WX    TMP DP  RH WIND       PRES   REMARKS
CONCORDIA      SUNNY     92  73  53 S13       29.81F HX 100
EMPORIA        SUNNY     94  66  39 S16       29.86F HX  97
LAWRENCE       MOSUNNY   94  73  50 S9        29.85F HX 103
MANHATTAN      PTSUNNY   95  71  45 S20G25    29.82F HX 102
MARYSVILLE     PTSUNNY   90  79  70 SE9       29.83S HX 105
OLATHE IND     MOSUNNY   94  73  50 S12       29.88F HX 103
OLATHE EXE     MOSUNNY   91  72  53 S10       29.87F HX  98
SALINA         SUNNY     97  64  33 S16G24    29.80F HX  99
TOPEKA BILLARD SUNNY     95  72  47 S12       29.85S HX 103
TOPEKA FORBES  SUNNY     96  70  42 S10       29.86R HX 102
$$



USA.gov is the U.S. government's official web portal to all federal, state and local government web resources and services.